Regional Weather Roundup
Issued by NWS Nashville, TN

Home | Current Version | Previous Version | Text Only | Print | Product List | Glossary On
Versions: 1 2 3 4 5 6 7 8 9 10 11 12 13 14 15 16 17 18 19 20 21 22 23 24 25 26 27 28 29 30 31 32 33 34 35 36 37 38 39 40 41 42 43 44 45 46 47 48 49 50
000
ASUS44 KOHX 190515
RWROHX
MIDDLE TENNESSEE HOURLY WEATHER ROUNDUP
NATIONAL WEATHER SERVICE NASHVILLE TN
1200 AM CDT SUN APR 19 2015

NOTE: "FAIR" INDICATES FEW OR NO CLOUDS BELOW 12,000 FEET WITH
NO SIGNIFICANT WEATHER AND/OR OBSTRUCTIONS TO VISIBILITY.

* THESE REPORTS ARE NOT UNDER NWS QUALITY CONTROL AND MAY NOT
  REPORT WEATHER SUCH AS PRECIPITATION AND FOG.


TNZ005>011-023>034-057-059-062>066-078-080-190600
...NORTHERN MIDDLE TENNESSEE...

CITY           SKY/WX    TMP DP  RH WIND       PRES   REMARKS
CLARKSVILLE    CLOUDY    69  61  75 E8        29.83F
CROSSVILLE     CLOUDY    64  59  83 CALM      29.94F
NASHVILLE      CLOUDY    65  63  93 CALM      29.84F
SMYRNA         CLOUDY    64  64 100 CALM      29.86F
SPARTA         MOCLDY    66  61  82 E7          N/A
$$
TNZ056-058-060-061-075>077-079-093>097-190600
...SOUTHERN MIDDLE TENNESSEE...

CITY           SKY/WX    TMP DP  RH WIND       PRES   REMARKS
COLUMBIA       MOCLDY    68  32  26 CALM      29.83F
MCMINNVILLE    CLOUDY    70  63  78 VRB5      29.89F
SHELBYVILLE    CLOUDY    68  64  88 SE7       29.87F
TULLAHOMA      CLOUDY    66  61  82 CALM      29.89F
WINCHESTER     MOCLDY    66  63  88 SE7       29.88F
$$


...KEY TO REMARKS...
VSB - VISIBILITY IN MILES
WCI - WIND CHILL INDEX
HX  - HEAT INDEX




USA.gov is the U.S. government's official web portal to all federal, state and local government web resources and services.